Location: Fleurey
(47.7447°N, 6.0860°E)
Time: 22:03:17
(UTC+00:00)

Daily predictions for brighter satellites

Satellite Brightness Start Highest point End
(mag) Time Altitude Azimuth Time Altitude Azimuth Time Altitude Azimuth
USA 267 3.5 16:14:45 10° ENE 16:21:17 66° SE 16:27:46 10° SW
H-2A R/B 2.9 16:20:03 10° ESE 16:24:17 27° ENE 16:28:27 10° N
SJ 16-02 3.4 16:21:06 10° NW 16:25:02 33° WSW 16:28:56 10° SSW
Cosmos 1763 Rocket 3.6 16:22:25 10° S 16:27:20 54° ESE 16:32:19 10° NNE
CZ-4B R/B 2.8 16:24:26 10° SSE 16:28:28 75° ENE 16:32:19 10° N
USA 276 3.5 16:25:49 10° W 16:28:45 39° SSW 16:31:42 10° SE
USA 305 3.8 16:24:55 10° WNW 16:28:51 36° N 16:32:46 10° ENE
Cosmos 1656 4.1 16:25:15 10° NNW 16:30:46 71° WSW 16:36:21 10° SSE
Cosmos 1933 3.9 16:29:48 10° SSE 16:33:32 37° E 16:37:16 10° NNE
Cosmos 841 Rocket 4.4 16:29:33 10° SSE 16:33:55 28° E 16:38:17 10° NE
PSLV R/B 4.5 16:31:30 10° SE 16:34:43 29° ENE 16:37:59 10° N
Cosmos 1464 Rocket 4.3 16:29:09 10° SSW 16:35:31 80° W 16:41:57 10° N
USA 229 DEB 4.0 16:28:20 10° NW 16:35:40 86° NE 16:43:29 10° SE
USA 229 4.0 16:28:25 10° NW 16:35:46 86° NE 16:43:35 10° SE
Cosmos 1937 Rocket 3.6 16:31:54 10° NNW 16:37:08 54° ENE 16:42:20 10° SE
Spot 1 4.4 16:35:17 10° NNE 16:40:00 88° E 16:44:57 10° SSW
Cosmos 1500 Rocket 3.5 16:35:32 10° N 16:40:00 79° E 16:44:24 10° SSE
Cosmos 1666 4.1 16:37:38 10° NNE 16:40:10 17° ENE 16:42:41 10° ESE
Nadezhda 4 Rocket 4.2 16:35:28 10° N 16:41:50 85° W 16:48:10 10° S
SeaSat 1 4.3 16:38:17 10° N 16:42:13 24° NW 16:46:07 10° W
SL-24 R/B - RUBIN 2 3.9 16:38:07 10° NNW 16:42:34 44° NE 16:46:44 10° ESE
ATLAS 2AS CENTAUR R/B 4.3 16:37:21 10° WNW 16:43:38 26° NNW 16:49:41 10° NE
Cosmos 2322 Rocket 3.8 16:40:21 10° N 16:43:39 15° NE 16:45:58 12° ENE
Cosmos 990 Rocket 4.2 16:38:53 10° NNW 16:44:05 76° WSW 16:49:14 10° SSE
FengYun 1-2 T 4.2 16:40:32 10° SSE 16:46:07 86° ENE 16:51:42 10° NNW
Cosmos 1697 Rocket 2.6 16:40:49 10° NNW 16:46:28 81° ENE 16:52:05 10° SSE
Cosmos 372 Rocket 4.3 16:43:18 10° NNW 16:48:20 44° ENE 16:53:20 10° SE
NOAA 6 4.0 16:44:24 10° SSE 16:49:31 76° ENE 16:54:39 10° NNW
Sich 1 3.2 16:45:34 10° N 16:49:43 46° ENE 16:53:52 10° SSE
Cosmos 1980 Rocket 2.4 16:45:13 10° NNW 16:50:45 50° NE 16:56:12 10° SE
Cosmos 1805 Rocket 3.5 16:47:26 10° N 16:51:45 62° ENE 16:56:02 10° SSE
Cosmos 2221 3.5 16:47:40 10° SSW 16:51:48 48° WNW 16:55:59 10° N
Cosmos 2369 3.7 16:47:00 10° NNW 16:52:43 63° ENE 16:58:23 10° SE
USA 234 3.3 16:48:56 10° SE 16:55:30 88° SW 17:02:05 10° NW
CZ-4C R/B 3.1 16:50:14 10° NW 16:57:04 54° NE 17:05:07 10° ESE
Cosmos 1092 Rocket 4.0 16:51:22 10° N 16:57:46 78° E 17:04:06 10° SSE
NOSS 3-1 (A) 4.5 16:51:46 10° NW 16:59:14 71° SW 17:07:57 10° SSE
Cosmos 1428 Rocket 4.4 16:54:20 10° N 17:00:29 72° E 17:06:38 10° SSE
Cosmos 1812 3.6 16:57:16 10° SSE 17:00:34 28° E 17:02:42 17° NE
USA 306 3.8 16:57:12 10° WNW 17:01:07 34° N 17:03:36 19° NE
SL-16 R/B 3.3 16:57:26 10° N 17:01:51 23° NE 17:04:15 18° ENE
ISS -3.8 16:59:13 10° WNW 17:02:37 74° NNE 17:04:59 18° ESE
Meteor 1-25 Rocket 4.3 16:57:52 10° NNW 17:03:27 83° W 17:09:04 10° S
NOSS 2-2 (D) 4.3 16:59:45 10° NW 17:04:48 72° NE 17:11:54 10° SE
MOS 1-B Rocket 4.4 16:59:12 10° NNE 17:04:53 46° E 17:11:17 10° S
deb Chang Zheng 4 4.1 17:01:05 10° SE 17:05:00 35° ENE 17:08:57 10° N
NOSS 2-2 (E) 4.4 16:59:55 10° NW 17:05:09 84° NE 17:12:34 10° SE
SMAP 3.2 17:00:52 10° S 17:05:31 78° WSW 17:10:13 10° NNW
Cosmos 2082 Rocket 2.5 17:00:58 10° S 17:06:19 45° ESE 17:10:43 15° NE
Cosmos 1939 Rocket 3.3 17:02:42 10° S 17:06:47 66° W 17:10:52 10° NNW
CORIOLIS 4.2 17:03:04 10° SSE 17:08:28 86° WSW 17:13:57 10° NNW
Cosmos 44 Rocket 4.0 17:07:29 10° NNW 17:12:00 34° NE 17:14:23 22° E
Cosmos 2333 Rocket 4.2 17:10:20 10° N 17:12:02 11° NNE 17:12:25 11° NNE
CZ-4B DEB 4.2 17:09:20 10° SSE 17:14:51 87° WSW 17:20:23 10° NNW
Cosmos 2278 3.8 17:11:08 10° NNW 17:16:46 56° ENE 17:22:21 10° SE
Cosmos 1602 4.1 17:13:06 10° NNW 17:16:57 68° W 17:20:47 10° S
Cosmos 1627 Rocket 4.5 17:13:01 10° N 17:19:13 86° W 17:25:20 10° S
USA 307 3.8 17:16:01 10° WNW 17:19:58 35° N 17:21:38 25° NE
Cosmos 540 Rocket 3.4 17:16:11 10° SSW 17:21:17 90° E 17:26:07 12° NNE
ARGOS 3.2 17:19:47 10° SE 17:25:02 53° ENE 17:30:17 10° N
COSMO-SKYMED 1 2.9 17:23:24 21° NE 17:25:58 44° E 17:30:07 10° S
Cosmos 1570 Rocket 4.4 17:21:07 10° S 17:26:01 42° ESE 17:28:35 25° NE
Cosmos 2279 Rocket 4.0 17:20:08 10° S 17:26:10 57° E 17:32:14 10° NNE
COSMOS 2406 3.3 17:21:16 10° SSW 17:27:01 82° WNW 17:32:09 13° NNE
Cosmos 1833 Rocket 3.1 17:22:48 10° SW 17:28:22 64° WNW 17:33:42 11° NNE
Cosmos 1782 2.9 17:25:36 10° SSW 17:29:35 80° W 17:33:36 10° N
Cosmos 2266 Rocket 4.4 17:23:41 10° N 17:29:37 39° ENE 17:35:33 10° SE
Cosmos 1814 Rocket 4.1 17:25:46 10° S 17:30:50 53° ESE 17:33:44 24° NE
ATLAS 5 CENTAUR R/B 2.5 17:24:45 10° NW 17:32:16 42° NNE 17:33:08 36° ENE
Cosmos 921 Rocket 4.4 17:30:41 10° SSE 17:32:43 21° SE 17:32:43 21° SE
Cosmos 1633 Rocket 3.0 17:30:35 10° N 17:34:56 63° ENE 17:39:17 10° SSE
ATLAS CENTAUR R/B 4.0 17:34:04 10° NW 17:35:43 12° NNW 17:37:24 10° N
Cosmos 1818 3.7 17:30:47 10° NNW 17:36:10 52° NE 17:38:50 28° ESE
Cosmos 2219 Rocket 4.2 17:35:04 10° N 17:36:28 12° NNE 17:36:28 12° NNE
YAOGAN 1 4.1 17:39:35 21° NNE 17:39:35 21° NNE 17:41:23 10° N
GEOS 3 Rocket 3.9 17:37:58 31° E 17:39:58 46° NE 17:44:54 10° NNW
CZ-2D R/B 3.9 17:36:30 10° S 17:40:16 57° W 17:44:04 10° NNW
ERBS 4.3 17:38:54 10° NW 17:41:02 16° N 17:41:02 16° N
Meteor 2-6 Rocket 4.3 17:35:30 10° S 17:41:04 53° E 17:45:14 17° NNE
USA 308 3.6 17:38:38 10° WNW 17:42:37 37° N 17:43:13 35° NNE
SJ-11-01 4.2 17:38:14 10° SSE 17:42:58 73° ENE 17:47:42 10° N
Cosmos 1634 Rocket 4.2 17:36:51 10° SSW 17:43:09 73° W 17:49:31 10° N
COSMOS 2455 2.8 17:38:18 10° SSW 17:44:20 88° WNW 17:48:14 24° NNE
CZ-2C R/B 2.4 17:40:35 12° NNE 17:45:24 70° ESE 17:50:33 10° S
Cosmos 1500 4.2 17:42:49 10° NNW 17:46:25 45° W 17:49:59 10° SSW
CZ-4B R/B 3.1 17:41:47 10° SSE 17:47:13 85° WSW 17:52:35 10° NNW
Cosmos 1151 Rocket 2.9 17:44:16 10° S 17:48:36 87° E 17:51:27 21° N
SKYMED 3 4.4 17:47:47 27° NNE 17:50:08 79° ESE 17:54:29 10° S
Lacrosse 5 rocket 1.4 17:46:49 10° NW 17:50:36 51° NNE 17:50:36 51° NNE
Okean O Rocket 1.5 17:46:50 10° SSE 17:51:16 86° ENE 17:55:46 10° NNW
Meteor 2-15 4.4 17:52:29 10° S 17:58:29 62° E 18:03:29 15° NNE
Cosmos 2208 Rocket 4.0 17:54:39 10° S 17:59:59 67° ESE 18:01:39 43° NE
CZ-4 R/B 4.4 17:56:30 10° S 18:00:37 80° WSW 18:04:47 10° NNW
Cosmos 1666 Rocket 4.1 17:56:21 10° NNW 18:00:44 59° W 18:05:04 10° S
Meteor 1-11 Rocket 3.7 17:57:23 10° N 18:02:55 55° ENE 18:05:45 28° SE
Meteor 1-10 Rocket 4.2 17:57:16 10° S 18:02:56 59° E 18:04:53 39° NE
H-2A R/B 3.0 17:58:31 10° S 18:03:29 47° W 18:08:22 10° NNW
Cosmos 1470 Rocket 3.4 17:59:32 10° N 18:04:01 75° E 18:08:29 10° SSE
USA 267 3.6 18:01:03 30° NE 18:04:14 56° NNW 18:10:35 10° W
Cosmos 2150 Rocket 3.9 17:59:09 10° NNW 18:04:16 60° ENE 18:04:48 57° E
Cosmos 1655 Rocket 3.9 17:59:42 10° N 18:06:07 72° E 18:12:29 10° SSE
Cosmos 1328 Rocket 3.5 18:01:41 10° S 18:06:08 87° W 18:07:30 44° N
Landsat 5 3.3 18:08:42 81° S 18:08:42 81° S 18:12:30 10° SSW
Cosmos 2360 Rocket 3.4 18:03:50 10° NNW 18:07:10 26° NNE 18:07:10 26° NNE
USA 305 3.7 18:05:18 10° WNW 18:08:46 41° N 18:08:46 41° N
SKYMED 2 4.0 18:12:00 29° N 18:14:05 60° WNW 18:18:20 10° SSW
Cosmos 2180 Rocket 4.5 18:08:34 10° S 18:14:55 84° W 18:21:15 10° N
Cosmos 841 Rocket 4.5 18:10:41 10° SW 18:15:35 43° WNW 18:18:54 19° N
Cosmos 1666 4.1 18:12:23 10° NNW 18:15:52 38° W 18:19:19 10° SSW
Feng Yun 1-1 Rocket 4.3 18:10:43 10° SSE 18:16:38 89° E 18:22:33 10° NNW
Meteor 2-8 Rocket 4.5 18:12:21 10° SSW 18:18:31 81° W 18:24:44 10° N
ATLAS CENTAUR R/B 2.9 18:12:50 10° WSW 18:20:06 44° NW 18:20:43 42° N
Cosmos 1125 Rocket 3.3 18:17:08 10° NNW 18:22:14 76° NE 18:22:14 76° NE
Cosmos 2322 Rocket 2.5 18:23:17 10° NNW 18:27:49 50° NNE 18:27:49 50° NNE
Cosmos 1980 Rocket 4.0 18:29:39 10° NW 18:34:30 30° WSW 18:39:18 10° SSW
SL-08 RB Rocket 4.4 18:30:06 10° S 18:34:37 53° W 18:39:09 10° NNW
ATLAS 2AS CENTAUR R/B 4.1 18:31:07 10° NW 18:37:10 25° NNE 18:37:27 25° NNE
ISS -1.1 18:36:23 10° W 18:37:59 20° WSW 18:37:59 20° WSW
CZ-4C R/B 3.7 18:38:47 10° NW 18:45:51 51° WSW 18:53:57 10° SSE
SL-16 R/B 2.3 18:40:57 10° NNW 18:46:11 74° WNW 18:46:11 74° WNW
Cosmos 2082 Rocket 3.5 18:45:23 10° WSW 18:50:33 35° NW 18:52:35 27° NNW
Cosmos 44 Rocket 4.3 18:49:00 10° NW 18:53:10 44° W 18:53:10 44° W
Cosmos 2333 Rocket 4.1 18:52:44 10° NNW 18:54:27 19° N 18:54:27 19° N
Cosmos 2360 Rocket 4.5 19:47:36 10° NW 19:48:57 17° NW 19:48:57 17° NW
